Location: Bonningues
(50.7927°N, 2.0150°E)
Time: 03:22:26
(UTC+00:00)

SL-4 R/B - Pass Details

Date: 08 August 2020
Orbit: 428 x 665 km, 51.6° (Epoch: 25 September)

Event Time Altitude Azimuth Distance (km) Brightness Sun altitude
Rises 20:41:14 0° 219° (SW) 2,674 5.5 -10.8°
Reaches altitude 10° 20:43:41 10° 209° (SSW) 1,741 4.4 -11.1°
Maximum altitude 20:47:09 30° 148° (SSE) 905 2.6 -11.5°
Drops below altitude 10° 20:50:24 10° 85° (E) 1,635 4.1 -11.9°
Enters shadow 20:51:06 - 81° (E) 1,890 4.4 -11.9°
